| time (UTC) | temp F | wind direction | speed knots | gust knots | rain 1hr in | rain 24hr in | rain mn in | humidity % | barometer mb |
| 20260507104052 | 49 | 0 | 0.0 | 3.5 | 0.04 | 0.30 | 0.22 | 92 | 1007.5 |
| 20260507103549 | 49 | 0 | 0.9 | 3.5 | 0.05 | 0.30 | 0.22 | 91 | 1007.5 |
| 20260507103049 | 48 | 307 | 0.9 | 3.5 | 0.04 | 0.29 | 0.21 | 91 | 1007.0 |
| 20260507102548 | 49 | 335 | 0.0 | 4.3 | 0.05 | 0.29 | 0.21 | 92 | 1007.3 |
| 20260507102050 | 49 | 0 | 1.7 | 4.3 | 0.05 | 0.29 | 0.21 | 91 | 1007.2 |
| 20260507101553 | 49 | 360 | 2.6 | 4.3 | 0.05 | 0.29 | 0.21 | 91 | 1007.0 |
| 20260507101048 | 49 | 360 | 0.9 | 3.5 | 0.05 | 0.28 | 0.20 | 91 | 1007.1 |
| 20260507100546 | 49 | 352 | 0.0 | 3.5 | 0.05 | 0.28 | 0.20 | 91 | 1007.5 |
| 20260507100101 | 49 | 342 | 0.9 | 2.6 | 0.05 | 0.28 | 0.20 | 90 | 1007.4 |
| 20260507095548 | 49 | 0 | 0.0 | 2.6 | 0.04 | 0.27 | 0.19 | 91 | 1007.3 |
| 20260507095047 | 49 | 0 | 0.0 | 2.6 | 0.04 | 0.27 | 0.19 | 91 | 1007.2 |
| 20260507094557 | 49 | 0 | 0.9 | 4.3 | 0.03 | 0.26 | 0.18 | 91 | 1007.2 |
| 20260507094046 | 49 | 279 | 0.9 | 4.3 | 0.04 | 0.26 | 0.18 | 91 | 1007.1 |
| 20260507093547 | 49 | 0 | 1.7 | 4.3 | 0.04 | 0.25 | 0.17 | 91 | 1007.2 |
| 20260507093058 | 49 | 338 | 0.9 | 7.0 | 0.05 | 0.25 | 0.17 | 91 | 1007.2 |
| 20260507092547 | 49 | 338 | 0.9 | 7.0 | 0.04 | 0.24 | 0.16 | 91 | 1007.0 |
| 20260507092049 | 50 | 347 | 4.3 | 7.0 | 0.05 | 0.24 | 0.16 | 91 | 1006.6 |
| 20260507091601 | 50 | 5 | 3.5 | 8.7 | 0.05 | 0.24 | 0.16 | 91 | 1006.8 |
| 20260507091047 | 50 | 350 | 3.5 | 9.6 | 0.05 | 0.23 | 0.15 | 89 | 1007.0 |
| 20260507090548 | 50 | 336 | 2.6 | 9.6 | 0.05 | 0.23 | 0.15 | 91 | 1006.9 |
| 20260507090103 | 50 | 360 | 1.7 | 7.8 | 0.06 | 0.23 | 0.15 | 92 | 1006.8 |
| 20260507085548 | 50 | 344 | 1.7 | 7.8 | 0.07 | 0.23 | 0.15 | 91 | 1006.8 |
| 20260507085048 | 50 | 18 | 3.5 | 8.7 | 0.07 | 0.23 | 0.15 | 91 | 1006.5 |
| 20260507084600 | 50 | 303 | 4.3 | 8.7 | 0.08 | 0.23 | 0.15 | 92 | 1006.8 |
| 20260507084047 | 50 | 348 | 3.5 | 7.8 | 0.07 | 0.22 | 0.14 | 92 | 1006.7 |
| 20260507083549 | 50 | 9 | 3.5 | 7.0 | 0.07 | 0.21 | 0.13 | 93 | 1006.6 |
| 20260507083058 | 50 | 350 | 1.7 | 4.3 | 0.06 | 0.20 | 0.12 | 91 | 1006.9 |
| 20260507082548 | 50 | 344 | 1.7 | 7.0 | 0.07 | 0.20 | 0.12 | 91 | 1006.9 |
| 20260507082046 | 50 | 351 | 2.6 | 7.0 | 0.07 | 0.19 | 0.11 | 91 | 1006.7 |
| 20260507081602 | 50 | 333 | 3.5 | 7.0 | 0.07 | 0.18 | 0.10 | 90 | 1006.8 |
| 20260507081050 | 50 | 342 | 3.5 | 7.0 | 0.09 | 0.18 | 0.10 | 90 | 1006.9 |
| 20260507080547 | 50 | 326 | 2.6 | 5.2 | 0.10 | 0.18 | 0.10 | 87 | 1007.0 |
| 20260507080121 | 51 | 335 | 1.7 | 6.1 | 0.09 | 0.17 | 0.09 | 90 | 1006.9 |
| 20260507075549 | 51 | 342 | 3.5 | 6.1 | 0.08 | 0.16 | 0.08 | 90 | 1006.7 |
| 20260507075048 | 51 | 352 | 0.9 | 3.5 | 0.08 | 0.16 | 0.08 | 90 | 1006.8 |
| 20260507074557 | 51 | 24 | 0.0 | 3.5 | 0.07 | 0.15 | 0.07 | 89 | 1007.1 |
| 20260507074047 | 51 | 0 | 0.0 | 4.3 | 0.07 | 0.15 | 0.07 | 90 | 1007.4 |
| 20260507073551 | 51 | 0 | 0.0 | 4.3 | 0.06 | 0.14 | 0.06 | 89 | 1007.2 |
| 20260507073054 | 51 | 341 | 1.7 | 5.2 | 0.06 | 0.14 | 0.06 | 87 | 1007.1 |
| 20260507072549 | 51 | 26 | 1.7 | 9.6 | 0.05 | 0.13 | 0.05 | 88 | 1006.6 |
| 20260507072048 | 52 | 315 | 2.6 | 10.4 | 0.04 | 0.12 | 0.04 | 87 | 1007.2 |
| 20260507071555 | 52 | 351 | 7.0 | 10.4 | 0.03 | 0.11 | 0.03 | 86 | 1007.0 |
| 20260507071048 | 52 | 5 | 4.3 | 8.7 | 0.01 | 0.09 | 0.01 | 85 | 1006.1 |
| 20260507070548 | 52 | 340 | 5.2 | 8.7 | 0.00 | 0.08 | 0.00 | 86 | 1006.2 |
| 20260507070104 | 52 | 34 | 3.5 | 9.6 | 0.00 | 0.08 | 0.00 | 84 | 1005.8 |
| 20260507065552 | 53 | 20 | 4.3 | 9.6 | 0.00 | 0.08 | 0.00 | 84 | 1005.8 |
| 20260507065047 | 53 | 22 | 4.3 | 10.4 | 0.00 | 0.08 | 0.00 | 85 | 1005.5 |
| 20260507064626 | 53 | 15 | 5.2 | 10.4 | 0.00 | 0.08 | 0.00 | 86 | 1005.7 |
| 20260507064052 | 53 | 38 | 5.2 | 8.7 | 0.00 | 0.08 | 0.00 | 87 | 1005.8 |
| 20260507063550 | 54 | 31 | 3.5 | 7.8 | 0.00 | 0.08 | 0.00 | 91 | 1005.8 |
| 20260507063112 | 54 | 334 | 0.9 | 7.8 | 0.00 | 0.08 | 0.00 | 91 | 1006.0 |
| 20260507062548 | 54 | 342 | 3.5 | 7.8 | 0.00 | 0.08 | 0.00 | 91 | 1006.2 |
| 20260507062048 | 54 | 352 | 2.6 | 5.2 | 0.00 | 0.08 | 0.00 | 88 | 1006.1 |
| 20260507061552 | 54 | 344 | 2.6 | 4.3 | 0.00 | 0.08 | 0.00 | 90 | 1006.0 |
| 20260507061051 | 54 | 327 | 0.9 | 7.0 | 0.00 | 0.08 | 0.00 | 90 | 1006.0 |
| 20260507060549 | 54 | 339 | 0.9 | 9.6 | 0.00 | 0.08 | 0.00 | 89 | 1006.0 |
| 20260507060111 | 54 | 333 | 2.6 | 9.6 | 0.00 | 0.08 | 0.00 | 89 | 1006.1 |
| 20260507055548 | 54 | 333 | 5.2 | 9.6 | 0.00 | 0.08 | 0.00 | 89 | 1006.0 |
| 20260507055048 | 55 | 5 | 3.5 | 9.6 | 0.00 | 0.08 | 0.00 | 89 | 1006.1 |
| 20260507054557 | 55 | 352 | 6.1 | 9.6 | 0.00 | 0.08 | 0.00 | 87 | 1006.2 |
| 20260507054048 | 55 | 327 | 3.5 | 7.0 | 0.00 | 0.08 | 0.00 | 90 | 1006.4 |
| 20260507053548 | 55 | 316 | 1.7 | 5.2 | 0.00 | 0.08 | 0.00 | 90 | 1006.4 |
| 20260507053103 | 55 | 296 | 1.7 | 6.1 | 0.00 | 0.08 | 0.00 | 90 | 1006.2 |
| 20260507052550 | 56 | 273 | 1.7 | 8.7 | 0.00 | 0.08 | 0.00 | 89 | 1006.3 |
| 20260507052048 | 56 | 280 | 2.6 | 8.7 | 0.00 | 0.08 | 0.00 | 90 | 1006.4 |
| 20260507051602 | 56 | 339 | 2.6 | 8.7 | 0.00 | 0.08 | 0.00 | 87 | 1006.5 |
| 20260507051047 | 56 | 286 | 0.0 | 3.5 | 0.00 | 0.08 | 0.00 | 91 | 1006.6 |
| 20260507050547 | 56 | 302 | 0.9 | 3.5 | 0.00 | 0.08 | 0.00 | 91 | 1006.4 |
| 20260507050052 | 56 | 0 | 0.9 | 2.6 | 0.00 | 0.08 | 0.00 | 91 | 1006.4 |
| 20260507045550 | 56 | 0 | 0.9 | 5.2 | 0.00 | 0.08 | 0.00 | 91 | 1006.3 |
| 20260507045048 | 56 | 291 | 0.9 | 5.2 | 0.00 | 0.08 | 0.00 | 91 | 1006.3 |
| 20260507044557 | 56 | 324 | 0.9 | 3.5 | 0.00 | 0.08 | 0.00 | 90 | 1006.4 |
| 20260507044051 | 56 | 0 | 0.0 | 3.5 | 0.00 | 0.08 | 0.00 | 91 | 1006.4 |
| 20260507043548 | 57 | 0 | 0.0 | 5.2 | 0.00 | 0.08 | 0.00 | 90 | 1006.4 |
| 20260507043052 | 57 | 267 | 0.9 | 5.2 | 0.00 | 0.08 | 0.00 | 90 | 1006.3 |
| 20260507042547 | 57 | 325 | 1.7 | 6.1 | 0.00 | 0.08 | 0.00 | 90 | 1006.2 |
| 20260507042048 | 57 | 263 | 2.6 | 6.1 | 0.00 | 0.08 | 0.00 | 90 | 1006.4 |
| 20260507041553 | 57 | 269 | 2.6 | 6.1 | 0.00 | 0.08 | 0.00 | 89 | 1006.3 |
| 20260507041048 | 57 | 309 | 1.7 | 7.8 | 0.00 | 0.08 | 0.00 | 89 | 1006.3 |
| 20260507040548 | 58 | 273 | 2.6 | 7.8 | 0.00 | 0.08 | 0.00 | 86 | 1006.1 |
| 20260507040052 | 58 | 277 | 3.5 | 8.7 | 0.00 | 0.08 | 0.00 | 90 | 1006.1 |
| 20260507035548 | 58 | 325 | 3.5 | 8.7 | 0.00 | 0.08 | 0.08 | 91 | 1006.2 |
| 20260507035047 | 58 | 306 | 4.3 | 8.7 | 0.00 | 0.08 | 0.08 | 93 | 1006.3 |
| 20260507034555 | 58 | 283 | 0.9 | 5.2 | 0.00 | 0.08 | 0.08 | 94 | 1006.2 |
| 20260507034047 | 58 | 277 | 1.7 | 5.2 | 0.00 | 0.08 | 0.08 | 94 | 1006.3 |
| 20260507033547 | 58 | 269 | 2.6 | 7.0 | 0.00 | 0.08 | 0.08 | 94 | 1006.2 |
| 20260507033050 | 58 | 338 | 2.6 | 7.8 | 0.00 | 0.08 | 0.08 | 94 | 1006.1 |
| 20260507032546 | 58 | 257 | 1.7 | 7.8 | 0.00 | 0.08 | 0.08 | 93 | 1006.2 |
| 20260507032048 | 58 | 242 | 1.7 | 7.0 | 0.00 | 0.08 | 0.08 | 93 | 1006.3 |
| 20260507031555 | 58 | 218 | 2.6 | 7.0 | 0.00 | 0.08 | 0.08 | 93 | 1006.3 |
| 20260507031050 | 58 | 234 | 3.5 | 7.0 | 0.00 | 0.08 | 0.08 | 93 | 1006.0 |
| 20260507030546 | 58 | 262 | 4.3 | 8.7 | 0.00 | 0.08 | 0.08 | 93 | 1005.9 |
| 20260507030053 | 58 | 219 | 4.3 | 8.7 | 0.00 | 0.08 | 0.08 | 93 | 1006.0 |
| 20260507025549 | 58 | 242 | 3.5 | 8.7 | 0.00 | 0.08 | 0.08 | 93 | 1006.0 |
| 20260507025049 | 58 | 226 | 3.5 | 8.7 | 0.00 | 0.08 | 0.08 | 93 | 1006.1 |
| 20260507024555 | 58 | 228 | 4.3 | 8.7 | 0.00 | 0.08 | 0.08 | 93 | 1006.1 |
| 20260507024048 | 58 | 236 | 3.5 | 8.7 | 0.00 | 0.08 | 0.08 | 93 | 1006.0 |
| 20260507023548 | 58 | 233 | 3.5 | 8.7 | 0.00 | 0.08 | 0.08 | 93 | 1006.1 |
| 20260507023055 | 58 | 240 | 3.5 | 7.8 | 0.00 | 0.08 | 0.08 | 93 | 1006.0 |
| 20260507022548 | 58 | 254 | 4.3 | 7.8 | 0.00 | 0.08 | 0.08 | 93 | 1006.0 |
| 20260507022047 | 58 | 215 | 2.6 | 7.0 | 0.00 | 0.08 | 0.08 | 93 | 1005.9 |
| 20260507021550 | 58 | 209 | 2.6 | 7.0 | 0.00 | 0.08 | 0.08 | 93 | 1005.9 |
| 20260507021047 | 58 | 212 | 1.7 | 9.6 | 0.00 | 0.08 | 0.08 | 93 | 1005.9 |
| 20260507020549 | 58 | 252 | 3.5 | 9.6 | 0.00 | 0.08 | 0.08 | 93 | 1006.0 |
| 20260507020108 | 58 | 234 | 3.5 | 7.8 | 0.01 | 0.08 | 0.08 | 93 | 1006.0 |
| 20260507015548 | 58 | 216 | 3.5 | 6.1 | 0.01 | 0.08 | 0.08 | 94 | 1006.1 |
| 20260507015047 | 58 | 259 | 1.7 | 6.1 | 0.01 | 0.08 | 0.08 | 94 | 1006.1 |
| 20260507014558 | 57 | 45 | 1.7 | 6.1 | 0.01 | 0.08 | 0.08 | 94 | 1005.9 |
| 20260507014049 | 57 | 272 | 1.7 | 5.2 | 0.01 | 0.08 | 0.08 | 93 | 1005.9 |
| 20260507013548 | 57 | 211 | 2.6 | 7.0 | 0.01 | 0.08 | 0.08 | 94 | 1006.1 |
| 20260507013053 | 57 | 219 | 1.7 | 7.0 | 0.01 | 0.08 | 0.08 | 94 | 1006.0 |
| 20260507012548 | 57 | 238 | 3.5 | 7.0 | 0.01 | 0.08 | 0.08 | 94 | 1005.9 |
| 20260507012049 | 57 | 249 | 2.6 | 7.0 | 0.01 | 0.08 | 0.08 | 94 | 1005.8 |
| 20260507011550 | 57 | 232 | 2.6 | 7.0 | 0.01 | 0.08 | 0.08 | 94 | 1006.1 |
| 20260507011048 | 57 | 243 | 3.5 | 7.0 | 0.01 | 0.08 | 0.08 | 94 | 1006.3 |
| 20260507010547 | 57 | 226 | 1.7 | 7.0 | 0.01 | 0.08 | 0.08 | 94 | 1006.1 |
| 20260507010100 | 57 | 209 | 1.7 | 7.0 | 0.00 | 0.07 | 0.07 | 94 | 1006.4 |
| 20260507005547 | 57 | 252 | 2.6 | 6.1 | 0.00 | 0.07 | 0.07 | 94 | 1006.3 |
| 20260507005048 | 57 | 198 | 2.6 | 7.0 | 0.00 | 0.07 | 0.07 | 94 | 1006.4 |
| 20260507004551 | 57 | 242 | 2.6 | 8.7 | 0.00 | 0.07 | 0.07 | 94 | 1006.4 |
| 20260507004048 | 57 | 260 | 3.5 | 8.7 | 0.00 | 0.07 | 0.07 | 94 | 1006.4 |
| 20260507003546 | 57 | 249 | 3.5 | 8.7 | 0.00 | 0.07 | 0.07 | 94 | 1006.4 |
| 20260507003050 | 57 | 250 | 3.5 | 8.7 | 0.00 | 0.07 | 0.07 | 94 | 1006.4 |
| 20260507002547 | 57 | 213 | 1.7 | 7.8 | 0.00 | 0.07 | 0.07 | 94 | 1006.4 |
| 20260507002047 | 57 | 208 | 3.5 | 7.8 | 0.00 | 0.07 | 0.07 | 94 | 1006.2 |
| 20260507001557 | 57 | 201 | 1.7 | 7.0 | 0.00 | 0.07 | 0.07 | 94 | 1006.2 |
| 20260507001049 | 57 | 230 | 2.6 | 7.0 | 0.00 | 0.07 | 0.07 | 93 | 1006.2 |
| 20260507000546 | 57 | 269 | 2.6 | 7.0 | 0.00 | 0.07 | 0.07 | 93 | 1006.1 |
| 20260507000054 | 57 | 259 | 2.6 | 7.0 | 0.00 | 0.07 | 0.07 | 93 | 1006.2 |
| 20260506235549 | 57 | 238 | 2.6 | 6.1 | 0.00 | 0.07 | 0.07 | 93 | 1006.1 |
| 20260506235047 | 57 | 213 | 2.6 | 7.0 | 0.00 | 0.07 | 0.07 | 93 | 1006.2 |
| 20260506234558 | 57 | 240 | 2.6 | 8.7 | 0.00 | 0.07 | 0.07 | 93 | 1006.0 |
| 20260506234045 | 57 | 252 | 2.6 | 8.7 | 0.00 | 0.07 | 0.07 | 92 | 1006.0 |
| 20260506233549 | 57 | 250 | 2.6 | 7.0 | 0.00 | 0.07 | 0.07 | 93 | 1006.0 |
| 20260506233055 | 57 | 238 | 2.6 | 7.0 | 0.00 | 0.07 | 0.07 | 93 | 1005.9 |
| 20260506232545 | 57 | 211 | 1.7 | 5.2 | 0.00 | 0.07 | 0.07 | 92 | 1005.9 |
| 20260506232045 | 57 | 233 | 1.7 | 7.0 | 0.00 | 0.07 | 0.07 | 92 | 1005.9 |
| 20260506231605 | 58 | 0 | 2.6 | 7.8 | 0.00 | 0.07 | 0.07 | 92 | 1005.8 |
| 20260506231047 | 58 | 0 | 3.5 | 7.8 | 0.00 | 0.07 | 0.07 | 92 | 1005.9 |
| 20260506230547 | 58 | 209 | 3.5 | 7.0 | 0.00 | 0.07 | 0.07 | 92 | 1005.9 |
| 20260506230114 | 58 | 0 | 2.6 | 7.0 | 0.00 | 0.07 | 0.07 | 92 | 1005.9 |
| 20260506225552 | 58 | 174 | 2.6 | 7.0 | 0.00 | 0.07 | 0.07 | 92 | 1005.9 |
| 20260506225046 | 58 | 234 | 2.6 | 7.0 | 0.00 | 0.07 | 0.07 | 92 | 1006.0 |
| 20260506224550 | 58 | 236 | 4.3 | 7.0 | 0.00 | 0.07 | 0.07 | 91 | 1005.9 |
| 20260506224045 | 58 | 260 | 3.5 | 7.0 | 0.00 | 0.07 | 0.07 | 92 | 1005.9 |
| 20260506223546 | 58 | 192 | 1.7 | 7.0 | 0.00 | 0.07 | 0.07 | 92 | 1006.0 |
| 20260506223051 | 58 | 237 | 1.7 | 6.1 | 0.00 | 0.07 | 0.07 | 92 | 1005.8 |
| 20260506222548 | 58 | 187 | 2.6 | 6.1 | 0.00 | 0.07 | 0.07 | 92 | 1005.7 |
| 20260506222048 | 58 | 205 | 1.7 | 6.1 | 0.01 | 0.07 | 0.07 | 92 | 1005.7 |
| 20260506221609 | 58 | 234 | 0.9 | 6.1 | 0.01 | 0.07 | 0.07 | 92 | 1005.8 |
| 20260506221047 | 58 | 268 | 1.7 | 6.1 | 0.01 | 0.07 | 0.07 | 92 | 1005.7 |
| 20260506220551 | 58 | 219 | 2.6 | 7.8 | 0.01 | 0.07 | 0.07 | 92 | 1005.8 |
| 20260506220105 | 58 | 201 | 2.6 | 7.8 | 0.01 | 0.07 | 0.07 | 92 | 1005.9 |
| 20260506215547 | 58 | 216 | 0.0 | 7.8 | 0.01 | 0.07 | 0.07 | 92 | 1006.1 |
| 20260506215048 | 58 | 243 | 3.5 | 7.8 | 0.01 | 0.07 | 0.07 | 92 | 1006.2 |
| 20260506214553 | 58 | 199 | 2.6 | 7.8 | 0.01 | 0.07 | 0.07 | 92 | 1006.2 |
| 20260506214048 | 58 | 243 | 2.6 | 7.8 | 0.01 | 0.07 | 0.07 | 92 | 1006.2 |
| 20260506213548 | 58 | 0 | 2.6 | 9.6 | 0.01 | 0.07 | 0.07 | 92 | 1006.1 |
| 20260506213105 | 58 | 211 | 1.7 | 9.6 | 0.01 | 0.07 | 0.07 | 92 | 1006.3 |
| 20260506212548 | 58 | 229 | 3.5 | 8.7 | 0.01 | 0.07 | 0.07 | 92 | 1006.2 |
| 20260506212048 | 58 | 232 | 3.5 | 7.8 | 0.00 | 0.06 | 0.06 | 92 | 1006.3 |
| 20260506211610 | 58 | 232 | 3.5 | 10.4 | 0.00 | 0.06 | 0.06 | 91 | 1006.4 |
| 20260506211049 | 59 | 233 | 5.2 | 10.4 | 0.00 | 0.06 | 0.06 | 90 | 1006.5 |
| 20260506210548 | 59 | 212 | 5.2 | 10.4 | 0.00 | 0.06 | 0.06 | 90 | 1006.6 |
| 20260506210056 | 59 | 268 | 2.6 | 8.7 | 0.00 | 0.06 | 0.06 | 90 | 1006.7 |
| 20260506205547 | 59 | 247 | 4.3 | 10.4 | 0.00 | 0.06 | 0.06 | 90 | 1006.7 |
| 20260506205049 | 59 | 221 | 3.5 | 10.4 | 0.00 | 0.06 | 0.06 | 90 | 1006.6 |
| 20260506204601 | 59 | 216 | 4.3 | 8.7 | 0.00 | 0.06 | 0.06 | 90 | 1006.7 |
| 20260506204047 | 59 | 205 | 2.6 | 7.8 | 0.01 | 0.06 | 0.06 | 91 | 1006.6 |
| 20260506203548 | 59 | 223 | 0.9 | 7.0 | 0.01 | 0.06 | 0.06 | 91 | 1006.7 |
| 20260506203048 | 59 | 215 | 1.7 | 7.0 | 0.01 | 0.06 | 0.06 | 90 | 1006.8 |
| 20260506202548 | 59 | 253 | 3.5 | 8.7 | 0.02 | 0.06 | 0.06 | 90 | 1006.7 |
| 20260506202049 | 59 | 227 | 2.6 | 8.7 | 0.03 | 0.06 | 0.06 | 90 | 1006.8 |
| 20260506201550 | 59 | 265 | 3.5 | 7.0 | 0.03 | 0.06 | 0.06 | 91 | 1006.9 |
| 20260506201048 | 59 | 193 | 2.6 | 10.4 | 0.04 | 0.06 | 0.06 | 91 | 1006.8 |
| 20260506200549 | 59 | 227 | 2.6 | 15.6 | 0.04 | 0.06 | 0.06 | 90 | 1006.9 |
| 20260506200054 | 59 | 250 | 3.5 | 15.6 | 0.04 | 0.06 | 0.06 | 90 | 1006.9 |
| 20260506195552 | 59 | 261 | 5.2 | 15.6 | 0.04 | 0.06 | 0.06 | 90 | 1007.1 |
| 20260506195049 | 59 | 217 | 3.5 | 7.8 | 0.05 | 0.06 | 0.06 | 90 | 1007.1 |
| 20260506194552 | 59 | 223 | 3.5 | 7.0 | 0.05 | 0.06 | 0.06 | 90 | 1007.1 |
| 20260506194048 | 59 | 236 | 0.9 | 6.1 | 0.04 | 0.05 | 0.05 | 91 | 1007.0 |
| 20260506193547 | 59 | 232 | 2.6 | 9.6 | 0.05 | 0.05 | 0.05 | 90 | 1007.1 |
| 20260506193047 | 59 | 196 | 4.3 | 9.6 | 0.05 | 0.05 | 0.05 | 89 | 1007.1 |
| 20260506192548 | 59 | 213 | 2.6 | 6.1 | 0.04 | 0.04 | 0.04 | 89 | 1007.1 |
| 20260506192048 | 59 | 202 | 1.7 | 5.2 | 0.03 | 0.03 | 0.03 | 88 | 1007.2 |
| 20260506191553 | 59 | 255 | 1.7 | 9.6 | 0.03 | 0.03 | 0.03 | 87 | 1007.2 |
| 20260506191048 | 59 | 211 | 1.7 | 9.6 | 0.02 | 0.02 | 0.02 | 86 | 1007.3 |
| 20260506190548 | 60 | 253 | 5.2 | 18.2 | 0.02 | 0.02 | 0.02 | 85 | 1007.2 |
| 20260506190051 | 60 | 227 | 7.0 | 18.2 | 0.02 | 0.02 | 0.02 | 85 | 1007.2 |
| 20260506185548 | 60 | 217 | 5.2 | 13.0 | 0.02 | 0.02 | 0.02 | 84 | 1007.4 |
| 20260506185048 | 60 | 192 | 3.5 | 13.0 | 0.01 | 0.01 | 0.01 | 83 | 1007.4 |
| 20260506184605 | 61 | 221 | 6.1 | 13.0 | 0.01 | 0.01 | 0.01 | 82 | 1007.6 |
| 20260506184048 | 61 | 235 | 2.6 | 11.3 | 0.00 | 0.00 | 0.00 | 82 | 1007.6 |
| 20260506183554 | 62 | 235 | 4.3 | 11.3 | 0.00 | 0.00 | 0.00 | 79 | 1007.7 |
| 20260506183051 | 62 | 238 | 4.3 | 10.4 | 0.00 | 0.00 | 0.00 | 77 | 1007.7 |
| 20260506182547 | 63 | 260 | 5.2 | 13.0 | 0.00 | 0.00 | 0.00 | 76 | 1007.6 |
| 20260506182051 | 63 | 236 | 5.2 | 13.9 | 0.00 | 0.00 | 0.00 | 75 | 1007.7 |
| 20260506181552 | 64 | 259 | 6.1 | 13.9 | 0.00 | 0.00 | 0.00 | 74 | 1007.9 |
| 20260506181048 | 64 | 223 | 8.7 | 13.9 | 0.00 | 0.00 | 0.00 | 72 | 1007.9 |
| 20260506180548 | 64 | 234 | 9.6 | 13.9 | 0.00 | 0.00 | 0.00 | 71 | 1007.8 |
| 20260506180058 | 65 | 205 | 7.8 | 12.2 | 0.00 | 0.00 | 0.00 | 70 | 1007.9 |
| 20260506175548 | 66 | 207 | 3.5 | 16.5 | 0.00 | 0.00 | 0.00 | 68 | 1007.8 |
| 20260506175050 | 65 | 217 | 3.5 | 16.5 | 0.00 | 0.00 | 0.00 | 69 | 1007.9 |
| 20260506174557 | 66 | 251 | 8.7 | 16.5 | 0.00 | 0.00 | 0.00 | 67 | 1008.0 |
| 20260506174047 | 66 | 196 | 7.8 | 16.5 | 0.00 | 0.00 | 0.00 | 67 | 1008.0 |
| 20260506173548 | 67 | 239 | 6.1 | 15.6 | 0.00 | 0.00 | 0.00 | 65 | 1007.9 |
| 20260506173051 | 68 | 259 | 7.0 | 15.6 | 0.00 | 0.00 | 0.00 | 65 | 1007.9 |
| 20260506172549 | 68 | 199 | 6.1 | 16.5 | 0.00 | 0.00 | 0.00 | 65 | 1008.0 |
| 20260506172048 | 68 | 250 | 7.8 | 16.5 | 0.00 | 0.00 | 0.00 | 64 | 1008.0 |
| 20260506171607 | 69 | 190 | 6.1 | 16.5 | 0.00 | 0.00 | 0.00 | 64 | 1008.0 |
| 20260506171048 | 68 | 265 | 7.0 | 16.5 | 0.00 | 0.00 | 0.00 | 64 | 1008.1 |
| 20260506170549 | 68 | 235 | 9.6 | 16.5 | 0.00 | 0.00 | 0.00 | 64 | 1008.0 |
| 20260506170100 | 67 | 211 | 7.0 | 13.9 | 0.00 | 0.00 | 0.00 | 65 | 1008.0 |
| 20260506165548 | 69 | 167 | 7.0 | 13.0 | 0.00 | 0.00 | 0.00 | 62 | 1008.1 |
| 20260506165048 | 70 | 170 | 5.2 | 18.2 | 0.00 | 0.00 | 0.00 | 62 | 1008.0 |
| 20260506164555 | 70 | 202 | 7.0 | 18.2 | 0.00 | 0.00 | 0.00 | 62 | 1008.0 |
| 20260506164048 | 69 | 200 | 5.2 | 13.0 | 0.00 | 0.00 | 0.00 | 60 | 1008.2 |
| 20260506163547 | 69 | 194 | 6.1 | 13.9 | 0.00 | 0.00 | 0.00 | 63 | 1008.2 |
| 20260506163107 | 68 | 213 | 6.1 | 13.9 | 0.00 | 0.00 | 0.00 | 63 | 1008.2 |
| 20260506162551 | 69 | 238 | 5.2 | 12.2 | 0.00 | 0.00 | 0.00 | 63 | 1008.5 |
| 20260506162048 | 69 | 243 | 5.2 | 12.2 | 0.00 | 0.00 | 0.00 | 62 | 1008.5 |
| 20260506161557 | 69 | 216 | 6.1 | 12.2 | 0.00 | 0.00 | 0.00 | 63 | 1008.6 |
| 20260506161050 | 69 | 202 | 4.3 | 13.0 | 0.00 | 0.00 | 0.00 | 62 | 1008.6 |
| 20260506160549 | 68 | 207 | 4.3 | 14.8 | 0.00 | 0.00 | 0.00 | 61 | 1008.7 |
| 20260506155548 | 69 | 223 | 5.2 | 15.6 | 0.00 | 0.00 | 0.00 | 63 | 1008.9 |
| 20260506155047 | 68 | 229 | 7.8 | 15.6 | 0.00 | 0.00 | 0.00 | 63 | 1008.9 |
| 20260506154558 | 69 | 193 | 7.0 | 14.8 | 0.00 | 0.00 | 0.00 | 62 | 1008.9 |
| 20260506154051 | 69 | 236 | 6.1 | 14.8 | 0.00 | 0.00 | 0.00 | 63 | 1008.9 |
| 20260506153547 | 69 | 196 | 6.1 | 14.8 | 0.00 | 0.00 | 0.00 | 62 | 1009.1 |
| 20260506153059 | 69 | 155 | 5.2 | 18.2 | 0.00 | 0.00 | 0.00 | 62 | 1009.0 |
| 20260506152548 | 69 | 249 | 7.0 | 18.2 | 0.00 | 0.00 | 0.00 | 63 | 1009.1 |
| 20260506152048 | 69 | 245 | 5.2 | 14.8 | 0.00 | 0.00 | 0.00 | 61 | 1009.2 |
| 20260506151556 | 69 | 199 | 7.8 | 14.8 | 0.00 | 0.00 | 0.00 | 63 | 1009.2 |
| 20260506151047 | 68 | 211 | 7.0 | 13.9 | 0.00 | 0.00 | 0.00 | 65 | 1009.3 |
| 20260506150547 | 68 | 261 | 7.0 | 13.9 | 0.00 | 0.00 | 0.00 | 63 | 1009.3 |
| 20260506150056 | 67 | 203 | 7.0 | 18.2 | 0.00 | 0.00 | 0.00 | 62 | 1009.3 |
| 20260506145548 | 68 | 188 | 4.3 | 18.2 | 0.00 | 0.00 | 0.00 | 65 | 1009.4 |
| 20260506145049 | 67 | 247 | 7.0 | 14.8 | 0.00 | 0.00 | 0.00 | 66 | 1009.3 |
| 20260506144601 | 67 | 234 | 3.5 | 13.0 | 0.00 | 0.00 | 0.00 | 67 | 1009.4 |
| 20260506144047 | 66 | 272 | 6.1 | 16.5 | 0.00 | 0.00 | 0.00 | 68 | 1009.5 |
| 20260506143548 | 66 | 200 | 7.8 | 16.5 | 0.00 | 0.00 | 0.00 | 67 | 1009.5 |
| 20260506143050 | 67 | 211 | 3.5 | 16.5 | 0.00 | 0.00 | 0.00 | 67 | 1009.5 |
| 20260506142548 | 67 | 175 | 4.3 | 12.2 | 0.00 | 0.00 | 0.00 | 67 | 1009.4 |
| 20260506142048 | 66 | 232 | 5.2 | 13.9 | 0.00 | 0.00 | 0.00 | 67 | 1009.4 |
| 20260506141547 | 66 | 243 | 5.2 | 13.9 | 0.00 | 0.00 | 0.00 | 67 | 1009.2 |
| 20260506141048 | 67 | 213 | 5.2 | 11.3 | 0.00 | 0.00 | 0.00 | 66 | 1009.2 |
| 20260506140548 | 67 | 215 | 5.2 | 16.5 | 0.00 | 0.00 | 0.00 | 66 | 1009.2 |
| 20260506140051 | 67 | 217 | 4.3 | 16.5 | 0.00 | 0.00 | 0.00 | 68 | 1009.3 |
| 20260506135547 | 66 | 223 | 6.1 | 16.5 | 0.00 | 0.00 | 0.00 | 68 | 1009.5 |
| 20260506135047 | 66 | 248 | 6.1 | 13.9 | 0.00 | 0.00 | 0.00 | 65 | 1009.3 |
| 20260506134552 | 66 | 243 | 4.3 | 13.9 | 0.00 | 0.00 | 0.00 | 69 | 1009.3 |
| 20260506134048 | 66 | 180 | 6.1 | 13.9 | 0.00 | 0.00 | 0.00 | 69 | 1009.2 |
| 20260506133548 | 66 | 171 | 2.6 | 12.2 | 0.00 | 0.00 | 0.00 | 70 | 1009.3 |
| 20260506133054 | 65 | 242 | 4.3 | 13.0 | 0.00 | 0.00 | 0.00 | 70 | 1009.4 |
| 20260506132549 | 65 | 248 | 6.1 | 13.0 | 0.00 | 0.00 | 0.00 | 70 | 1009.5 |
| 20260506132050 | 65 | 186 | 5.2 | 10.4 | 0.00 | 0.00 | 0.00 | 72 | 1009.7 |
| 20260506131607 | 64 | 185 | 5.2 | 10.4 | 0.00 | 0.00 | 0.00 | 71 | 1009.9 |
| 20260506131047 | 63 | 248 | 3.5 | 14.8 | 0.00 | 0.00 | 0.00 | 75 | 1009.9 |
| 20260506130547 | 63 | 195 | 5.2 | 14.8 | 0.00 | 0.00 | 0.00 | 74 | 1009.9 |
| 20260506130056 | 63 | 221 | 6.1 | 16.5 | 0.00 | 0.00 | 0.00 | 74 | 1009.9 |
| 20260506125549 | 63 | 179 | 7.0 | 16.5 | 0.00 | 0.00 | 0.00 | 76 | 1009.8 |
| 20260506125047 | 63 | 239 | 7.0 | 13.0 | 0.00 | 0.00 | 0.00 | 76 | 1009.9 |
| 20260506124556 | 62 | 271 | 5.2 | 11.3 | 0.00 | 0.00 | 0.00 | 77 | 1009.8 |
| 20260506124048 | 62 | 194 | 5.2 | 13.9 | 0.00 | 0.00 | 0.00 | 77 | 1009.9 |
| 20260506123548 | 62 | 251 | 7.0 | 13.9 | 0.00 | 0.00 | 0.00 | 77 | 1009.9 |
| 20260506123055 | 62 | 242 | 3.5 | 11.3 | 0.00 | 0.00 | 0.00 | 77 | 1009.9 |
| 20260506122547 | 62 | 204 | 5.2 | 13.0 | 0.00 | 0.00 | 0.00 | 78 | 1009.9 |
| 20260506122048 | 62 | 241 | 5.2 | 13.0 | 0.00 | 0.00 | 0.00 | 78 | 1009.8 |
| 20260506121600 | 61 | 226 | 3.5 | 13.0 | 0.00 | 0.00 | 0.00 | 78 | 1009.9 |
| 20260506121050 | 61 | 211 | 4.3 | 13.0 | 0.00 | 0.00 | 0.00 | 78 | 1009.9 |
| 20260506120548 | 61 | 206 | 6.1 | 13.0 | 0.00 | 0.00 | 0.00 | 79 | 1009.8 |
| 20260506120055 | 61 | 232 | 3.5 | 18.2 | 0.00 | 0.00 | 0.00 | 79 | 1009.9 |
| 20260506115548 | 60 | 265 | 5.2 | 18.2 | 0.00 | 0.00 | 0.00 | 80 | 1009.9 |
| 20260506115048 | 60 | 257 | 4.3 | 10.4 | 0.00 | 0.00 | 0.00 | 80 | 1010.1 |
| 20260506114556 | 60 | 284 | 4.3 | 12.2 | 0.00 | 0.00 | 0.00 | 81 | 1010.2 |
| 20260506114048 | 59 | 229 | 3.5 | 12.2 | 0.00 | 0.00 | 0.00 | 82 | 1010.2 |
| 20260506113548 | 59 | 233 | 1.7 | 9.6 | 0.00 | 0.00 | 0.00 | 82 | 1010.2 |
| 20260506113054 | 59 | 213 | 4.3 | 10.4 | 0.00 | 0.00 | 0.00 | 82 | 1010.2 |
| 20260506112552 | 59 | 259 | 3.5 | 11.3 | 0.00 | 0.00 | 0.00 | 82 | 1010.2 |
| 20260506112048 | 59 | 213 | 2.6 | 11.3 | 0.00 | 0.00 | 0.00 | 82 | 1010.3 |
| 20260506111554 | 59 | 240 | 5.2 | 10.4 | 0.00 | 0.00 | 0.00 | 82 | 1010.3 |
| 20260506111048 | 59 | 225 | 5.2 | 10.4 | 0.00 | 0.00 | 0.00 | 82 | 1010.2 |
| 20260506110548 | 59 | 202 | 3.5 | 7.8 | 0.00 | 0.00 | 0.00 | 82 | 1010.2 |
| 20260506110055 | 59 | 221 | 3.5 | 7.8 | 0.00 | 0.00 | 0.00 | 83 | 1010.2 |
| 20260506105548 | 59 | 222 | 1.7 | 10.4 | 0.00 | 0.00 | 0.00 | 83 | 1010.1 |
| 20260506105048 | 58 | 246 | 4.3 | 10.4 | 0.00 | 0.00 | 0.00 | 83 | 1010.1 |
| 20260506104601 | 58 | 203 | 4.3 | 10.4 | 0.00 | 0.00 | 0.00 | 83 | 1010.1 |